N2XGL-1 Weather Reports


Display with metric or nautical units.
time (UTC)temp
F
wind
direction
speed
MPH
gust
MPH
rain 1hr
in
rain 24hr
in
rain mn
in
humidity
%
barometer
mb
20260509030423 59 0 0.0 1.0 0.00 0.01 0.00 56 1006.0
20260509025613 59 0 0.0 1.0 0.00 0.01 0.00 56 1006.0
20260509024718 60 270 1.0 2.0 0.00 0.01 0.00 53 1005.9
20260509023718 61 0 0.0 2.0 0.00 0.01 0.00 51 1005.7
20260509022718 61 135 1.0 3.0 0.00 0.01 0.00 49 1005.6
20260509021833 62 112 1.0 3.0 0.00 0.01 0.00 48 1005.6
20260509020853 63 90 2.0 4.0 0.00 0.01 0.00 47 1005.6
20260509015907 64 112 2.0 5.0 0.00 0.01 0.00 47 1005.5
20260509014918 64 112 2.0 5.0 0.00 0.01 0.00 46 1005.4
20260509013938 65 112 2.0 6.0 0.00 0.01 0.00 46 1005.4
20260509013412 65 135 3.0 7.0 0.00 0.01 0.00 46 1005.2
20260509013134 65 135 3.0 7.0 0.00 0.01 0.00 46 1005.2
20260509012318 66 68 1.0 3.0 0.00 0.01 0.00 44 1005.2
20260509011451 67 135 3.0 10.0 0.00 0.01 0.00 44 1005.1
20260509011435 67 135 1.0 2.0 0.00 0.01 0.00 43 1005.1
20260509010631 67 135 3.0 10.0 0.00 0.01 0.00 44 1005.1
20260509005748 67 112 3.0 6.0 0.00 0.01 0.00 42 1005.2
20260509005454 67 112 3.0 6.0 0.00 0.01 0.00 40 1005.0
20260509004923 67 112 3.0 6.0 0.00 0.01 0.00 40 1005.0
20260509004347 68 135 3.0 6.0 0.00 0.01 0.00 43 1005.0
20260509004048 68 135 3.0 6.0 0.00 0.01 0.00 43 1005.0
20260509003451 68 158 1.0 4.0 0.00 0.01 0.00 43 1005.1
20260509003048 68 158 1.0 4.0 0.00 0.01 0.00 43 1005.1
20260509002341 68 135 3.0 5.0 0.00 0.01 0.00 40 1005.1
20260509002141 68 135 3.0 5.0 0.00 0.01 0.00 40 1005.1
20260509001153 69 112 4.0 7.0 0.00 0.01 0.00 44 1005.1
20260509000341 69 135 2.0 6.0 0.00 0.01 0.00 44 1005.1
20260508235438 69 112 5.0 12.0 0.00 0.01 0.00 40 1005.0
20260508234553 69 158 5.0 10.0 0.00 0.01 0.00 42 1004.9
20260508233658 69 135 3.0 7.0 0.00 0.01 0.00 42 1005.0
20260508232733 70 135 3.0 7.0 0.00 0.01 0.00 41 1005.0
20260508232327 70 158 4.0 9.0 0.00 0.01 0.00 42 1004.9
20260508231908 70 158 4.0 9.0 0.00 0.01 0.00 42 1004.9
20260508231033 70 112 3.0 7.0 0.00 0.01 0.00 41 1004.9
20260508230221 70 158 3.0 12.0 0.00 0.01 0.00 42 1005.0
20260508225226 70 112 4.0 10.0 0.00 0.01 0.00 40 1004.9
20260508224308 71 135 4.0 11.0 0.00 0.01 0.00 42 1005.0
20260508223501 71 315 1.0 3.0 0.00 0.01 0.00 41 1005.1
20260508222533 71 135 3.0 9.0 0.00 0.01 0.00 38 1005.0
20260508221538 72 158 4.0 7.0 0.00 0.01 0.00 41 1005.2
20260508220638 72 135 3.0 8.0 0.00 0.01 0.00 43 1005.2
20260508215701 72 180 3.0 7.0 0.00 0.01 0.00 42 1005.4
20260508214759 71 180 3.0 7.0 0.00 0.01 0.00 43 1005.4
20260508213918 70 90 2.0 7.0 0.00 0.01 0.00 40 1005.4
20260508212948 71 45 4.0 11.0 0.00 0.01 0.00 42 1005.6
20260508212103 71 45 4.0 12.0 0.00 0.01 0.00 42 1005.5
20260508211303 70 225 1.0 3.0 0.00 0.01 0.00 40 1005.7
20260508210448 70 248 1.0 3.0 0.00 0.01 0.00 42 1005.8
20260508205548 71 135 3.0 5.0 0.00 0.01 0.00 42 1005.9
20260508204613 71 248 4.0 8.0 0.00 0.01 0.00 45 1006.0
20260508203738 71 180 3.0 7.0 0.00 0.01 0.00 44 1006.0
20260508202839 71 248 3.0 5.0 0.00 0.01 0.00 42 1006.1
20260508201958 70 68 2.0 5.0 0.00 0.01 0.00 40 1006.3
20260508201008 70 225 2.0 4.0 0.00 0.01 0.00 43 1006.4
20260508200115 70 180 3.0 6.0 0.00 0.01 0.00 49 1006.6
20260508195213 67 158 3.0 6.0 0.00 0.01 0.00 44 1006.8
20260508194408 67 135 3.0 7.0 0.00 0.01 0.00 47 1006.8
20260508193419 68 158 3.0 9.0 0.00 0.01 0.00 46 1006.9
20260508191458 67 135 2.0 5.0 0.00 0.01 0.00 46 1007.2
20260508190503 67 158 4.0 7.0 0.00 0.01 0.00 44 1007.3
20260508185541 66 180 3.0 6.0 0.00 0.01 0.00 48 1007.4
20260508184718 66 270 2.0 7.0 0.00 0.01 0.00 43 1007.6
20260508183726 66 225 2.0 4.0 0.00 0.01 0.00 44 1007.7
20260508182728 66 225 3.0 6.0 0.00 0.01 0.00 49 1007.8
20260508181839 65 135 2.0 4.0 0.00 0.01 0.00 45 1008.0
20260508181018 63 68 1.0 3.0 0.00 0.01 0.00 51 1008.1
20260508180138 63 68 2.0 3.0 0.00 0.01 0.00 48 1008.2
20260508175208 64 315 2.0 7.0 0.00 0.01 0.00 46 1008.4
20260508174321 64 45 3.0 9.0 0.00 0.01 0.00 48 1008.5
20260508173453 64 315 3.0 6.0 0.00 0.01 0.00 51 1008.7
20260508172521 63 68 3.0 6.0 0.00 0.01 0.00 52 1008.8
20260508171613 63 0 2.0 6.0 0.00 0.01 0.00 52 1008.8
20260508170641 63 45 4.0 9.0 0.00 0.01 0.00 48 1009.0
20260508165708 63 45 2.0 5.0 0.00 0.01 0.00 50 1009.1
20260508164038 63 112 2.0 4.0 0.00 0.01 0.00 54 1009.2
20260508163207 62 135 2.0 6.0 0.00 0.01 0.00 50 1009.2
20260508162313 62 68 3.0 6.0 0.00 0.01 0.00 51 1009.3
20260508161343 61 90 3.0 5.0 0.00 0.01 0.00 55 1009.2
20260508160538 61 135 3.0 6.0 0.00 0.01 0.00 55 1009.2
20260508155806 60 112 3.0 7.0 0.00 0.01 0.00 60 1009.3
20260508155658 60 112 3.0 7.0 0.00 0.01 0.00 60 1009.3
20260508154741 60 112 3.0 6.0 0.00 0.01 0.00 58 1009.2
20260508153748 60 135 3.0 6.0 0.00 0.01 0.00 58 1009.1
20260508152913 59 135 3.0 6.0 0.00 0.01 0.00 63 1009.1
20260508151913 56 158 2.0 5.0 0.00 0.01 0.00 68 1009.1
20260508150933 55 135 2.0 4.0 0.00 0.01 0.00 72 1009.1
20260508150028 53 202 2.0 3.0 0.00 0.01 0.00 77 1009.0
20260508145145 51 158 2.0 5.0 0.00 0.01 0.00 82 1009.2
20260508144348 49 180 3.0 4.0 0.00 0.01 0.00 85 1009.2
20260508143508 49 112 1.0 3.0 0.00 0.01 0.00 85 1009.2
20260508142600 48 135 2.0 4.0 0.00 0.01 0.00 85 1009.2
20260508141648 48 180 1.0 4.0 0.00 0.01 0.00 86 1009.3
20260508140743 48 135 1.0 3.0 0.00 0.01 0.00 86 1009.4
20260508135018 47 180 3.0 6.0 0.00 0.01 0.00 86 1009.6
20260508134133 47 202 3.0 7.0 0.00 0.01 0.00 86 1009.6
20260508133331 47 158 3.0 7.0 0.00 0.01 0.00 86 1009.6
20260508132526 47 158 3.0 5.0 0.00 0.01 0.00 86 1009.8
20260508131533 47 202 2.0 5.0 0.00 0.01 0.00 86 1009.7
20260508130641 47 225 2.0 6.0 0.00 0.01 0.00 86 1009.7
20260508125713 47 158 2.0 3.0 0.00 0.01 0.00 86 1009.7
20260508124838 46 0 0.0 2.0 0.00 0.01 0.00 86 1009.7
20260508123928 46 0 0.0 2.0 0.00 0.01 0.00 86 1009.7
20260508123101 46 45 2.0 4.0 0.00 0.01 0.00 87 1009.8
20260508122256 46 0 3.0 7.0 0.00 0.01 0.00 88 1009.7
20260508122213 46 0 3.0 7.0 0.00 0.01 0.00 88 1009.7
20260508121348 46 0 2.0 7.0 0.00 0.01 0.00 89 1010.0
20260508120504 45 0 2.0 5.0 0.00 0.01 0.00 90 1010.0
20260508115613 45 0 1.0 4.0 0.00 0.01 0.00 90 1009.8
20260508115259 44 0 2.0 7.0 0.00 0.01 0.00 91 1009.6
20260508114808 44 0 2.0 7.0 0.00 0.01 0.00 91 1009.6
20260508113846 44 0 2.0 6.0 0.00 0.01 0.00 90 1009.6
20260508113018 43 0 0.0 1.0 0.00 0.01 0.00 89 1009.2
20260508112033 43 338 1.0 2.0 0.00 0.01 0.00 89 1009.0
20260508111148 43 0 0.0 2.0 0.00 0.01 0.00 88 1009.0
20260508110257 44 225 1.0 3.0 0.00 0.01 0.00 88 1008.9
20260508110218 44 225 1.0 3.0 0.00 0.01 0.00 88 1008.9
20260508105320 44 0 0.0 1.0 0.00 0.01 0.00 88 1008.8
20260508105001 45 270 2.0 4.0 0.00 0.01 0.00 89 1008.7
20260508104521 45 270 2.0 4.0 0.00 0.01 0.00 89 1008.7
20260508103906 45 0 1.0 2.0 0.00 0.01 0.00 89 1008.7
20260508103721 45 0 1.0 2.0 0.00 0.01 0.00 89 1008.7
20260508102853 45 0 3.0 5.0 0.00 0.01 0.00 89 1008.8
20260508101853 45 22 3.0 5.0 0.00 0.01 0.00 90 1008.9
20260508101008 44 45 3.0 5.0 0.00 0.01 0.00 90 1008.7
20260508100255 44 22 2.0 4.0 0.00 0.01 0.00 90 1008.8
20260508095253 44 45 3.0 5.0 0.00 0.01 0.00 90 1008.7
20260508094348 43 315 1.0 3.0 0.00 0.01 0.00 89 1008.3
20260508093526 43 0 0.0 2.0 0.00 0.01 0.00 89 1008.1
20260508092658 43 338 1.0 2.0 0.00 0.01 0.00 88 1007.9
20260508091853 43 270 1.0 3.0 0.00 0.01 0.00 88 1008.1
20260508090953 44 270 1.0 3.0 0.00 0.01 0.00 87 1008.3
20260508090252 44 270 1.0 2.0 0.00 0.01 0.00 87 1008.0
20260508090143 44 270 1.0 2.0 0.00 0.01 0.00 87 1008.0
20260508085321 45 180 1.0 2.0 0.00 0.01 0.00 86 1008.3
20260508084408 45 270 2.0 3.0 0.00 0.01 0.00 86 1008.4
20260508083443 46 225 1.0 3.0 0.00 0.01 0.00 86 1008.2
20260508083342 46 0 0.0 1.0 0.00 0.01 0.00 86 1008.4
20260508082553 46 0 0.0 1.0 0.00 0.01 0.00 86 1008.4
20260508081908 46 0 0.0 1.0 0.00 0.01 0.00 86 1008.7
20260508081608 46 0 0.0 1.0 0.00 0.01 0.00 86 1008.7
20260508080623 46 0 0.0 1.0 0.00 0.01 0.00 86 1009.0
20260508075648 47 0 0.0 1.0 0.00 0.01 0.00 84 1009.3
20260508074653 47 0 0.0 1.0 0.00 0.01 0.00 84 1009.4
20260508073906 47 0 0.0 0.0 0.00 0.01 0.00 83 1009.4
20260508073833 47 0 0.0 0.0 0.00 0.01 0.00 83 1009.4
20260508072908 48 338 1.0 2.0 0.00 0.01 0.00 83 1009.6
20260508072234 48 22 1.0 2.0 0.00 0.01 0.00 83 1009.4
20260508071938 48 22 1.0 2.0 0.00 0.01 0.00 83 1009.4
20260508071038 49 22 1.0 4.0 0.00 0.01 0.00 83 1009.4
20260508064504 50 22 1.0 2.0 0.00 0.01 0.00 81 1009.1
20260508063638 50 0 0.0 1.0 0.00 0.01 0.00 81 1009.1
20260508062748 51 45 1.0 4.0 0.00 0.01 0.00 80 1009.1
20260508061910 51 45 1.0 3.0 0.00 0.01 0.00 80 1009.0
20260508061838 51 45 1.0 3.0 0.00 0.01 0.00 80 1009.0
20260508060953 51 45 2.0 4.0 0.00 0.01 0.00 81 1008.9
20260508060239 51 45 2.0 5.0 0.00 0.01 0.00 81 1009.1
20260508060131 51 45 2.0 5.0 0.00 0.01 0.00 81 1009.1
20260508055153 51 45 4.0 9.0 0.00 0.01 0.00 82 1009.2
20260508054253 51 135 3.0 5.0 0.00 0.01 0.00 82 1009.3
20260508053408 51 202 3.0 8.0 0.00 0.01 0.00 83 1009.0
20260508052448 51 248 4.0 9.0 0.00 0.01 0.00 82 1009.3
20260508051613 51 292 4.0 7.0 0.00 0.01 0.00 83 1009.4
20260508050733 51 270 5.0 8.0 0.00 0.01 0.00 82 1009.5
20260508045753 52 270 4.0 9.0 0.00 0.01 0.00 81 1009.1
20260508044818 52 0 0.0 1.0 0.01 0.01 0.00 80 1008.9
20260508043841 52 22 1.0 3.0 0.01 0.01 0.00 79 1008.9
20260508043355 52 22 1.0 2.0 0.01 0.01 0.00 78 1008.7
20260508043021 52 22 1.0 2.0 0.01 0.01 0.00 78 1008.7
20260508042141 53 22 1.0 3.0 0.01 0.01 0.00 78 1008.5
20260508041233 54 68 3.0 5.0 0.01 0.01 0.00 75 1008.5
20260508040338 55 45 3.0 7.0 0.01 0.01 0.00 73 1008.9
20260508035449 56 45 1.0 4.0 0.00 0.00 0.00 66 1009.6
20260508034453 56 338 2.0 4.0 0.00 0.00 0.00 60 1009.9
20260508033458 57 68 4.0 7.0 0.00 0.00 0.00 59 1008.8
20260508032503 58 45 2.0 7.0 0.00 0.00 0.00 56 1008.6
20260508031533 58 68 4.0 10.0 0.00 0.00 0.00 56 1008.4